Regional Weather Roundup
Issued by NWS

Home | Current Version | Previous Version | Graphics & Text | Print | Product List | Glossary On
Versions: 1 2 3 4 5 6 7 8 9 10 11 12 13 14 15 16 17 18 19 20 21 22 23 24 25 26 27 28 29 30 31 32 33 34 35 36 37 38 39 40 41 42 43 44 45 46 47 48 49 50
000
ASUS43 KOAX 261010
RWRNE

WEATHER ROUNDUP FOR NEBRASKA
NATIONAL WEATHER SERVICE OMAHA NE
500 AM CDT SAT MAY 26 2018

NOTES: SATELLITE DATA IS BEING USED TO AUGMENT CLOUD COVER ABOVE
       12000 FEET.
       "FAIR" INDICATES FEW OR NO CLOUDS BELOW 12,000 FEET WITH NO
       SIGNIFICANT WEATHER AND/OR OBSTRUCTIONS TO VISIBILITY.


NEZ001>004-019>022-054>056-261100-
NEBRASKA PANHANDLE

CITY           SKY/WX    TMP DP  RH WIND       PRES   REMARKS
SCOTTSBLUFF    CLEAR     59  53  80 E6        29.89S
ALLIANCE       CLEAR     51  48  89 CALM      29.90F
CHADRON        CLEAR     51  51 100 W3        29.87S FOG
GORDON         FAIR      51  49  92 CALM      29.90R
KIMBALL        CLEAR     53  47  80 S6        29.94S
SIDNEY         CLEAR     55  47  74 S6        29.92F
$$

NEZ057>060-069>072-079>082-261100-
SOUTHWEST NEBRASKA

CITY           SKY/WX    TMP DP  RH WIND       PRES   REMARKS
NORTH PLATTE   CLEAR     56  54  93 NE3       29.86S
IMPERIAL       CLEAR     60  53  77 W3        29.88S
LEXINGTON      CLEAR     60  57  88 NW3       29.84F
MCCOOK         CLEAR     63  56  78 SW3       29.85F
OGALLALA       CLEAR     55  53  92 S3        29.88S
$$

NEZ005>010-023>029-035>040-094-261100-
NORTH CENTRAL NEBRASKA

CITY           SKY/WX    TMP DP  RH WIND       PRES   REMARKS
VALENTINE      CLEAR     58  56  93 CALM      29.85S
AINSWORTH      CLEAR     60  59  97 CALM      29.85S
BROKEN BOW     CLEAR     62  58  86 CALM      29.84S
O`NEILL        CLEAR     66  62  86 CALM      29.82F
ORD            CLEAR     60  59  96 NW5       29.81S
THEDFORD       CLEAR     58  57  95 CALM      29.89S
$$

NEZ041-046>049-061>064-073>077-083>087-261100-
SOUTH CENTRAL NEBRASKA

CITY           SKY/WX    TMP DP  RH WIND       PRES   REMARKS
GRAND ISLAND   CLEAR     65  60  84 W5        29.81S
AURORA         CLEAR     66  62  87 W5        29.80S
HASTINGS       CLEAR     68  60  75 W3        29.82S
HEBRON         CLEAR     67  64  91 CALM      29.81R
HOLDREGE       CLEAR     67  58  73 CALM      29.84S
KEARNEY        CLEAR     70  57  63 NW6       29.83S
YORK           CLEAR     64  64 100 SW3       29.80S
$$

NEZ011>018-030>034-042>045-261100-
NORTHEAST NEBRASKA

CITY           SKY/WX    TMP DP  RH WIND       PRES   REMARKS
NORFOLK        CLEAR     62  58  86 CALM      29.79R
ALBION         CLEAR     60  59  96 NW6       29.81S
BLAIR          CLEAR     69  60  73 W3        29.76S
COLUMBUS       CLEAR     64  59  83 NW5       29.78S
FREMONT        CLEAR     66  60  83 NW5       29.77R
TEKAMAH        CLEAR     64  60  87 NW3       29.74S
WAYNE          CLEAR     60  59  96 CALM      29.78S
$$

NEZ050>053-065>068-078-088>093-261100-
SOUTHEAST NEBRASKA

CITY           SKY/WX    TMP DP  RH WIND       PRES   REMARKS
LINCOLN        CLEAR     68  62  81 S5        29.78R
OMAHA EPPLEY   CLEAR     66  62  87 E3        29.75R
BEATRICE       CLEAR     73  66  80 SW5       29.79S
FALLS CITY     CLEAR     72  64  76 SW5       29.77R
NEBRASKA CITY  CLEAR     73  65  75 W9        29.77R
PLATTSMOUTH    CLEAR     74  65  73 W5        29.76R
$$

NEZ044-045-051>053-067-261100-
OMAHA AREA

CITY           SKY/WX    TMP DP  RH WIND       PRES   REMARKS
OMAHA EPPLEY   CLEAR     66  62  87 E3        29.75R
BLAIR          CLEAR     69  60  73 W3        29.76S
FREMONT        CLEAR     66  60  83 NW5       29.77R
MILLARD        CLEAR     67  63  86 CALM      29.76R
OFFUTT AFB     CLEAR     64  61  88 CALM      29.74R
PLATTSMOUTH    CLEAR     74  65  73 W5        29.76R
WAHOO          FAIR      67  58  72 NW3       29.76S
$$




USA.gov is the U.S. government's official web portal to all federal, state and local government web resources and services.